Regional Weather Roundup
Issued by NWS Upton, NY

Current Version | Previous Version | Text Only | Print | Product List | Glossary On
Versions: 1 2 3 4 5 6 7 8 9 10 11 12 13 14 15 16 17 18 19 20 21 22 23 24 25 26 27 28 29 30 31 32 33 34 35 36 37 38 39 40 41 42 43 44 45 46 47 48 49 50
000 ASUS41 KOKX 211708 RWROKX REGIONAL WEATHER ROUNDUP NATIONAL WEATHER SERVICE NEW YORK NY 1200 PM EST SAT JAN 21 2017 NOTE: "FAIR" INDICATES FEW OR NO CLOUDS BELOW 12,000 FEET WITH NO SIGNIFICANT WEATHER AND/OR OBSTRUCTIONS TO VISIBILITY. NYZ071-072-176-178-NJZ106-104-211800- NEW YORK CITY METRO AREA CITY SKY/WX TMP DP RH WIND PRES REMARKS Central Park CLOUDY 43 41 93 W7 29.89F Wall St Helipt CLOUDY 44 41 89 W8 29.88F LaGuardia APRT PTSUNNY 48 42 80 W9 29.86F Kennedy INTL CLOUDY 46 46 100 W10 29.88S Breezy Point N/A 43 N/A N/A W8 N/A Newark/Liberty CLOUDY 45 42 89 W10 29.87F Teterboro CLOUDY 46 42 86 W6 29.86F FOG $$ NYZ177-179-078>081-211800- LONG ISLAND NEW YORK CITY SKY/WX TMP DP RH WIND PRES REMARKS Jones Beach N/A 41 N/A N/A W9G16 N/A Matinecock PT NOT AVBL Farmingdale CLOUDY 48 43 82 W8 29.86F MacArthur/ISP CLOUDY 46 44 93 W6 29.85F FOG Shirley CLOUDY 44 43 96 VRB3 29.85F FOG Westhampton CLOUDY 45 42 89 SW10 29.87S Southampton NOT AVBL Bridgehampton NOT AVBL East Hampton CLOUDY 47 42 85 W5 29.84F Montauk N/A 45 42 89 W6 29.85F $$ NYZ052-065-067-211800- HUDSON VALLEY CITY SKY/WX TMP DP RH WIND PRES REMARKS White Plains PTSUNNY 44 41 89 W8 29.85R FOG Newburgh PTSUNNY 46 45 93 SW9 29.85R Montgomery MOSUNNY 50 45 83 SW8 29.82F Poughkeepsie CLOUDY 45 41 86 SW6 29.84F Albany CLOUDY 43 38 82 S6 29.82F $$ NJZ001-105-106-008-010-013-015-019>022-104-211800- NEW JERSEY CITY SKY/WX TMP DP RH WIND PRES REMARKS Newark/Liberty CLOUDY 45 42 89 W10 29.87F Teterboro CLOUDY 46 42 86 W6 29.86F FOG Caldwell CLOUDY 46 43 89 SW5 29.87F Somerville CLOUDY 46 42 86 CALM 29.86F Linden CLOUDY 44 42 91 NW10 29.88F Sussex CLOUDY 44 44 100 SW3 29.84F Andover N/A 42 42 100 S5 29.86F Trenton CLOUDY 45 44 97 W5 29.87F FOG Millville CLOUDY 45 45 100 CALM 29.90F FOG Atlantic City NOT AVBL Wrightstown CLOUDY 45 44 96 W6 29.85F FOG Toms River CLOUDY 46 45 96 W8 29.88F Belmar CLOUDY 45 44 97 W7 29.88F FOG $$ PAZ047>061-062-071-211800- EASTERN PENNSYLVANIA CITY SKY/WX TMP DP RH WIND PRES REMARKS Philadelphia CLOUDY 45 44 97 W6 29.89F FOG Allentown FOG 45 43 93 SW3 29.86F VSB 1 Scranton CLOUDY 45 44 97 W6 29.84F FOG $$ CTZ002-004>006-009-010-012-RIZ004-006-007-MAZ004-011-015-211800- SOUTHERN NEW ENGLAND IN CT CITY SKY/WX TMP DP RH WIND PRES REMARKS Bradley INTL PTSUNNY 46 40 79 VRB5 29.81F Hartford PTSUNNY 46 42 86 SE6 29.82F Danbury CLOUDY 43 41 93 SW5 29.85F FOG Wtrbury/Oxford CLOUDY 43 39 87 W5 29.83F Bridgeport CLOUDY 46 41 82 SW7 29.85F HAZE Meriden CLOUDY 47 41 80 S6 29.83F New Haven CLOUDY 44 41 89 SW6 29.85F FOG Chester CLOUDY 43 43 100 W5 29.83F FOG Groton CLOUDY 47 42 83 SW8 29.83F Wilimantic CLOUDY 46 41 82 VRB3 29.82F IN RI CITY SKY/WX TMP DP RH WIND PRES REMARKS Providence PTSUNNY 47 40 76 W7 29.81F Block Island NOT AVBL Westerly CLOUDY 46 41 82 SW7 29.83F IN MA CITY SKY/WX TMP DP RH WIND PRES REMARKS Boston CLOUDY 47 40 76 SW7 29.79F Worcester PTSUNNY 43 39 86 W12 29.76F Westfield PTSUNNY 45 40 82 VRB5 29.79F Provincetown CLOUDY 44 41 89 SW12 29.80F Nantucket CLOUDY 44 42 93 W16G22 29.82F FOG $$ ANZ330-335-338-340-345-350-353-355-211800- COASTAL MARINE OBSERVATIONS STATION/POSITION TIME SKY/WX TEMP WIND PRES VSBY WAVE AIR SEA DIR/SP/G HT/PER (UTC) (F) (DEG/KT/KT) (MB) (MI) (FT/S) NY HARB ENTRANCE 1550 44 44 250/ 8/ 10 1011.9 3/11 20 S FIRE ISLAND 1650 43 45 260/ 12/ 16 1011.5 3/ 9 GREAT SOUTH BAY NOT AVBL 23 SSW MONTAUK P 1550 44 47 250/ 14/ 16 1011.9 4/11 15 E BARNEGAT LI 1630 47 N/A 4/11 HUDSON CANYON 1550 49 51 1012.2 4/12 KINGS POINT 1642 44 40 1011.4 EXECUTION ROCKS 1645 48 220/ 8/ 12 N/A CENTRAL LI SOUND 1615 42 250/ 4/ 6 N/A 0 EASTERN LI SOUND NOT AVBL ROBBINS REEF 1648 43 270/ 8/ 10 1011.7 $$ >>>>>>>>>>>>>>>>>>>>>>>>>>>> KEY <<<<<<<<<<<<<<<<<<<<<<<<<<< > < > SKY/WX - Sky Condition/Present Weather < > TMP - Temperature in Fahrenheit < > DP - Dew Point in Fahrenheit < > RH - Relative Humidity in Percent < > WIND - Direction (from) and Speed in MPH < > PRES - Mean Sea Level Pressure (inches of Hg) < > WCI - Wind Chill Index < > VSB - VISIBILITY IN MILES < > HX - HEAT INDEX < > TC - TEMPERATURE IN CELSIUS < > VRB - VARIABLE WIND DIRECTION < > < >>>>>>>>>>>>>>>>>>>>>>>>>>>> KEY <<<<<<<<<<<<<<<<<<<<<<<<<<<

USA.gov is the U.S. government's official web portal to all federal, state and local government web resources and services.